Wind_Speed
94 95 96 96 97 98 99 100 100 101 102 102 103 104 104 105 106 107 107 108 109 110 111 111 112 113 113 114 115 116 117 118 119 120 121 122 122 123 124 124 125 125 126 126 126 126 126 126 126 126 126 126 126 127 127 127 128 128 128 129 129 130 130 131 131 131 132 132 133 133 134 135 136 138 139 140 141 142 143 143 143 143 142 142 142 141
95 96 97 97 98 99 100 100 101 101 102 103 103 103 104 105 106 106 107 108 109 109 110 111 112 112 113 114 115 116 118 119 120 120 121 122 122 123 123 124 124 124 125 125 125 125 125 125 125 125 125 125 125 125 126 126 127 127 127 128 128 129 129 130 130 131 131 131 132 132 133 133 134 135 136 138 139 141 142 143 143 144 144 143 143 143
96 97 98 98 99 99 100 101 101 101 102 103 103 103 104 104 105 106 107 108 108 109 110 110 111 112 113 114 115 117 118 119 119 120 121 121 122 122 123 123 123 123 123 123 123 123 123 123 123 123 123 123 124 124 124 125 125 125 126 127 127 128 128 129 129 129 130 131 131 131 132 132 132 133 134 135 136 138 139 141 142 143 144 144 145 145
97 98 99 99 99 100 101 101 102 102 102 103 103 103 104 104 105 106 106 107 108 109 109 110 111 112 113 114 115 116 117 118 119 119 120 121 121 121 121 121 121 121 121 121 121 121 121 121 120 121 121 121 121 121 122 122 123 123 124 124 125 125 126 127 127 128 129 130 130 131 131 132 132 132 132 133 134 135 136 138 139 141 143 144 145 145
99 99 100 100 100 101 101 102 102 103 103 103 103 103 104 104 105 106 106 107 108 108 109 110 111 112 113 114 115 116 116 117 118 118 119 119 119 119 119 119 119 118 118 118 118 118 118 118 118 118 118 118 118 119 119 119 120 120 121 122 122 123 124 124 125 126 127 128 129 130 130 131 131 131 132 132 132 133 134 135 136 138 140 141 143 145
100 100 101 101 101 102 102 102 103 103 103 104 103 104 104 105 105 106 106 107 107 108 108 109 110 111 112 113 113 114 114 115 115 116 116 117 117 117 116 116 116 115 115 116 115 116 116 116 115 115 115 115 115 115 116 116 117 117 118 119 120 120 121 122 123 124 125 126 127 128 129 130 130 131 131 131 132 132 132 133 134 135 137 138 140 142
101 101 102 102 102 103 103 103 104 104 104 104 104 104 104 104 105 105 106 106 106 107 108 109 109 110 110 111 111 112 112 112 113 113 113 113 113 113 113 113 112 112 112 112 112 112 112 112 112 112 112 112 112 112 113 113 114 114 115 116 117 117 118 119 120 121 122 123 124 125 127 128 129 130 130 131 131 131 132 132 133 134 135 136 137 139
103 103 103 103 103 103 103 104 104 104 104 104 104 104 104 104 104 105 105 105 106 107 107 108 108 108 108 109 109 109 110 109 109 110 110 110 110 110 109 109 109 109 109 109 109 109 109 109 108 109 109 109 109 109 109 110 110 111 112 112 113 114 115 116 117 118 119 121 122 123 124 126 127 128 129 130 130 131 131 132 132 133 133 134 135 136
104 104 104 104 104 104 104 104 105 104 104 104 104 104 104 104 104 104 104 104 105 106 107 107 107 106 106 107 107 107 107 107 107 106 107 106 106 106 106 106 106 106 106 107 106 106 106 105 105 105 105 105 105 106 106 106 107 107 108 109 110 111 112 113 114 115 117 118 119 121 122 123 125 126 127 128 129 130 130 131 132 132 133 133 134 135
105 105 105 105 104 104 105 105 105 105 105 105 105 105 105 105 104 104 104 104 105 105 105 105 105 105 104 104 104 104 104 104 103 103 103 103 103 103 103 103 103 104 104 104 104 104 104 103 103 103 103 102 102 102 102 102 103 103 104 105 106 107 108 110 111 112 114 115 116 118 119 121 122 124 125 126 127 128 129 130 131 132 132 133 133 134
106 106 106 105 105 105 105 106 106 105 105 105 105 105 105 104 104 104 104 104 104 104 104 103 103 103 103 102 102 102 101 101 101 101 101 101 101 101 101 101 101 102 102 102 102 102 102 102 101 101 100 100 99 99 98 98 99 100 100 101 102 103 105 106 107 109 110 112 113 115 117 118 120 121 123 124 125 126 128 129 130 131 132 132 133 133
107 107 106 106 106 106 106 106 106 106 106 106 106 106 105 104 104 103 103 103 103 102 102 101 101 101 101 101 100 100 99 99 99 99 99 99 99 99 99 99 99 100 100 100 100 100 100 100 99 99 99 98 97 96 95 95 95 96 96 97 98 100 101 102 104 105 107 109 110 112 114 116 117 119 121 122 123 124 126 127 128 129 130 131 131 132
107 107 107 107 106 107 106 106 106 106 106 106 106 106 105 104 104 103 103 102 101 101 100 100 100 99 100 100 99 99 98 97 97 97 97 97 98 98 97 97 97 97 97 97 97 97 97 97 97 97 96 95 94 93 92 92 92 92 93 93 94 96 97 99 100 102 104 105 107 109 111 112 114 116 118 120 121 122 123 125 126 127 128 129 130 130
108 107 107 107 107 107 107 107 107 107 106 106 106 105 105 104 104 103 102 101 100 99 99 99 98 98 98 99 98 98 97 96 95 95 95 96 96 96 95 94 94 94 94 94 94 94 94 94 94 94 93 93 92 91 90 89 89 89 89 90 90 91 93 94 96 98 100 102 104 105 107 109 111 113 115 116 118 120 121 122 123 124 125 127 127 129
108 107 107 107 107 107 107 107 107 107 106 106 105 104 104 104 103 102 101 100 100 99 98 98 97 97 97 98 98 97 96 95 94 93 93 94 94 94 93 92 91 90 90 90 91 91 91 91 91 91 90 90 90 89 89 88 87 86 86 86 86 87 89 90 92 94 96 98 100 102 104 106 107 109 111 113 115 116 118 119 121 122 123 124 125 127
107 107 107 107 107 107 107 107 107 107 106 106 105 104 104 103 102 101 100 100 99 98 97 97 96 96 96 97 97 97 96 94 92 91 91 91 92 92 91 89 88 87 87 87 88 89 89 89 88 88 88 88 88 88 88 86 85 84 83 83 83 83 84 86 87 89 92 94 96 98 100 102 104 105 107 109 111 113 115 116 118 119 121 122 123 125
107 107 107 107 107 107 107 107 107 107 106 105 104 104 103 102 101 100 99 99 98 97 97 96 96 95 95 95 96 96 95 93 91 89 89 89 89 89 88 87 84 83 83 84 85 86 86 86 85 85 85 86 86 86 86 85 84 83 82 81 81 80 81 82 83 85 87 89 92 94 96 98 100 102 103 105 107 109 111 113 115 117 118 119 121 122
107 107 107 107 107 107 107 107 107 106 105 105 104 103 102 101 100 99 98 98 97 96 96 95 95 94 94 94 94 94 93 91 89 87 86 86 86 86 86 84 82 80 80 80 81 82 82 82 82 82 83 83 84 84 84 84 83 82 81 80 79 79 78 79 79 80 82 84 87 89 91 94 96 98 100 101 103 106 108 110 112 114 115 117 119 120
107 107 107 107 107 107 106 106 106 106 105 104 103 102 100 99 98 98 97 96 96 95 95 94 94 93 93 92 92 91 90 88 86 84 83 82 82 83 83 81 79 78 77 77 78 78 79 78 79 79 80 80 81 81 81 81 81 81 80 80 79 78 77 77 77 77 78 80 82 84 87 89 91 93 95 97 99 102 104 106 108 111 113 114 116 118
107 107 107 107 107 107 106 106 105 105 104 103 101 100 99 98 97 96 96 95 95 94 94 93 92 92 91 90 90 89 87 85 83 81 79 79 79 79 80 79 77 75 75 75 76 76 76 75 76 76 77 78 78 78 79 79 79 79 79 78 78 77 76 76 75 75 76 77 78 80 82 84 86 89 91 93 95 97 100 102 105 107 109 111 113 115
107 107 107 107 107 107 106 105 104 104 103 102 100 99 97 96 95 95 94 94 94 93 92 92 91 90 89 88 87 86 85 83 80 78 76 75 75 76 77 76 75 73 73 73 74 74 73 73 73 74 75 75 75 76 76 76 77 77 77 77 76 76 76 75 75 74 74 75 76 77 78 80 82 84 86 89 91 93 95 98 100 103 105 108 110 112
107 107 107 107 106 106 105 104 103 103 102 101 99 97 96 95 94 94 93 93 92 92 91 90 89 88 87 86 84 83 82 80 78 75 73 71 72 73 74 73 73 72 71 72 72 72 71 71 72 72 73 73 73 73 74 74 74 75 75 75 75 75 74 74 74 73 73 73 74 74 75 77 79 81 83 85 87 89 91 94 96 99 101 104 106 108
108 107 107 107 106 105 104 103 102 101 101 99 98 96 95 94 93 92 92 92 91 90 89 88 87 86 85 83 82 80 79 77 75 72 70 69 69 70 71 71 70 70 70 70 70 69 70 70 70 71 71 71 71 71 71 72 72 72 73 73 73 73 73 73 73 72 72 72 72 72 73 74 76 77 79 81 83 85 87 90 92 94 97 99 102 104
107 107 107 106 105 104 103 102 101 100 99 98 96 95 93 92 92 91 91 90 89 88 87 86 84 83 82 80 79 77 76 74 72 70 68 66 66 67 68 68 68 68 68 68 67 67 67 68 68 69 69 69 69 69 69 69 69 70 70 70 71 71 71 72 71 71 71 71 70 70 71 72 73 74 76 78 80 82 84 86 88 90 93 95 97 100
107 106 106 105 104 102 101 100 99 98 97 96 94 93 92 91 91 90 90 89 88 86 85 83 82 80 79 77 76 74 73 72 70 68 66 64 64 65 65 65 65 65 65 65 65 65 65 66 66 67 67 67 66 66 66 66 66 67 67 67 68 68 69 69 69 70 70 69 69 69 69 69 70 72 73 75 77 79 81 83 85 87 89 91 93 95
105 105 104 103 102 100 99 98 97 96 95 93 92 91 90 90 89 88 88 87 86 84 83 81 79 78 76 75 73 72 71 69 67 65 64 63 62 63 63 63 62 62 62 62 62 63 63 63 64 65 65 65 64 64 64 64 64 64 64 65 65 65 66 66 67 67 67 67 67 67 67 67 68 69 70 72 74 76 78 80 81 83 85 87 89 91
104 103 102 101 100 98 97 96 95 94 93 92 91 90 89 88 87 87 86 85 84 82 80 78 76 75 73 72 70 69 68 67 65 63 62 61 60 60 61 60 60 59 59 59 60 60 61 61 62 62 63 63 63 62 62 62 62 62 62 62 62 63 63 64 64 64 65 65 65 65 65 65 65 66 67 69 71 73 75 76 78 80 82 83 85 87
102 101 101 99 98 96 95 94 93 92 91 90 89 88 88 87 86 85 84 82 81 79 78 75 73 72 70 69 68 67 66 65 63 61 59 58 58 58 58 58 57 57 56 56 57 58 59 60 60 61 61 61 61 61 61 60 60 60 60 60 60 60 61 61 61 62 62 63 63 63 64 64 63 64 65 66 67 69 71 73 75 77 78 80 81 83
100 99 98 97 96 94 93 92 91 90 89 88 88 87 86 85 84 82 81 80 78 76 75 73 71 69 67 66 65 65 64 63 61 59 57 56 56 56 56 55 55 55 54 54 54 55 57 58 59 59 59 59 59 59 59 59 58 58 58 58 58 59 59 59 59 59 60 60 61 61 62 62 62 62 63 63 64 66 68 70 72 73 75 76 78 80
98 97 96 95 94 92 91 90 89 88 88 87 87 86 85 84 82 80 79 77 75 74 72 70 68 67 65 63 63 62 62 60 58 56 55 54 54 54 54 53 53 53 52 52 52 53 54 56 57 57 57 57 57 57 57 57 57 56 56 56 57 57 57 57 57 57 57 58 58 59 60 60 60 61 61 61 62 63 65 66 68 70 72 73 75 76
95 95 94 93 92 91 90 88 88 87 87 86 85 85 83 82 80 78 76 75 73 71 69 68 66 64 63 62 60 59 59 58 56 54 53 52 52 52 52 52 52 52 52 51 50 50 51 53 55 55 56 56 56 56 56 55 55 55 55 55 55 55 55 55 55 55 55 56 56 57 57 58 58 59 59 59 60 61 62 63 65 67 69 70 72 73
93 92 91 91 90 89 88 87 86 86 85 85 84 83 81 80 78 76 74 73 71 69 67 65 63 62 61 60 59 57 57 56 54 52 51 50 50 50 50 50 50 51 51 50 49 49 49 50 52 53 54 54 54 54 54 54 53 53 53 53 53 53 53 54 53 53 53 54 54 55 55 56 56 57 57 58 59 59 60 61 63 64 65 67 69 70
90 89 89 88 87 87 86 85 85 84 84 83 82 81 79 77 76 74 72 70 68 67 65 63 62 61 60 58 57 56 55 53 52 51 49 49 49 49 49 49 49 49 49 49 49 48 48 48 49 49 51 52 52 53 53 52 52 52 51 51 51 51 51 51 51 51 52 52 52 53 53 54 54 55 56 56 57 58 59 59 60 61 63 64 66 67
88 87 86 86 85 85 84 84 83 83 82 81 80 79 77 75 73 72 70 68 66 64 63 61 60 59 58 56 55 53 52 51 50 49 48 47 47 48 48 48 48 48 48 48 48 48 47 47 47 47 48 49 50 51 51 51 51 50 50 49 49 49 49 49 49 49 50 50 51 51 52 52 53 53 54 55 55 56 57 58 59 60 61 62 63 65
85 85 85 84 84 83 82 82 81 81 80 79 78 76 74 72 71 69 68 66 64 62 61 60 58 57 55 53 52 51 50 49 49 48 47 46 46 46 47 47 47 47 47 48 48 47 47 46 46 46 46 47 48 49 50 50 49 49 49 48 48 47 47 47 47 47 48 48 49 50 50 51 51 52 52 53 54 54 55 56 57 58 59 60 61 62
83 83 83 82 82 81 81 80 80 79 78 76 75 73 72 70 68 67 65 63 62 61 59 58 57 55 53 51 49 48 48 48 47 47 46 45 45 45 46 46 47 47 47 47 47 46 46 45 45 45 45 46 46 47 48 49 49 48 48 48 47 46 46 45 45 45 46 46 47 48 49 49 50 50 51 51 52 53 53 54 55 56 57 58 59 60
81 81 81 81 80 80 79 79 78 77 75 74 72 70 69 67 66 64 63 61 60 59 58 56 55 53 51 49 48 47 46 46 46 46 45 45 44 45 45 46 46 46 46 46 46 45 44 44 44 44 44 45 45 46 47 47 48 48 48 47 46 45 44 44 44 44 44 44 45 46 47 48 48 49 49 50 50 51 52 52 53 54 55 56 57 58
80 80 80 79 79 78 77 77 75 74 73 71 69 68 66 65 63 62 60 59 58 57 56 54 53 51 49 48 46 45 45 45 45 44 44 44 44 44 45 45 46 46 46 46 45 45 44 43 43 43 43 43 44 44 45 46 47 47 48 47 46 45 44 43 43 42 42 43 43 44 45 46 46 47 48 48 49 49 50 51 51 52 53 54 55 56
79 79 78 78 77 76 75 74 73 71 70 68 66 65 63 62 61 59 58 57 56 55 53 52 51 49 48 46 45 44 44 44 43 43 43 43 43 44 44 45 46 46 46 45 45 44 43 42 42 42 42 42 42 42 42 43 44 45 46 46 46 45 44 43 42 41 41 41 41 42 43 43 44 45 46 46 47 48 48 49 49 50 51 52 52 54
77 77 77 76 76 74 73 72 70 68 67 65 63 62 61 59 58 57 56 55 54 53 51 50 49 48 47 45 44 43 43 43 43 43 43 43 43 43 44 45 45 46 46 46 45 44 43 42 41 41 40 40 40 40 40 41 41 42 43 43 44 44 43 42 41 41 40 40 40 40 41 41 42 42 43 44 45 45 46 47 48 48 49 50 50 51
76 76 76 75 74 72 71 69 67 65 64 62 61 59 58 57 56 55 54 53 52 51 50 49 47 46 45 44 43 42 42 42 42 42 42 42 42 43 43 44 44 45 45 45 45 44 43 42 41 40 39 39 38 38 38 39 39 39 40 40 41 42 41 41 41 40 40 39 39 39 39 39 40 40 41 41 42 43 44 44 45 46 47 47 48 49
75 74 74 73 71 70 68 66 64 62 61 59 58 57 56 54 53 53 52 51 50 49 48 47 46 45 44 43 42 41 41 41 41 41 42 42 42 42 43 43 44 44 45 45 45 44 43 42 41 40 40 40 39 39 39 38 38 38 38 38 38 39 39 39 39 38 38 38 38 38 38 38 38 38 39 39 40 40 41 42 43 44 44 45 46 47
73 73 72 70 69 67 65 63 62 60 58 57 56 54 53 52 51 50 50 49 48 47 46 45 44 43 43 42 42 41 41 40 40 41 41 41 42 42 42 43 43 43 44 44 45 44 43 42 42 41 41 41 41 40 41 40 39 38 37 37 36 37 37 37 37 36 36 36 36 36 36 36 36 37 37 37 38 38 39 39 40 41 42 43 44 45
71 70 69 68 66 64 63 61 59 57 56 54 53 52 51 50 49 48 47 46 45 44 43 43 42 42 41 41 41 41 40 40 40 40 40 41 41 41 42 42 42 43 43 43 44 44 43 43 42 42 42 42 42 42 42 41 40 39 37 36 35 35 35 35 35 35 35 35 34 34 34 35 35 35 35 36 36 36 37 37 38 39 40 41 41 42
69 68 67 65 63 62 60 58 57 55 54 52 51 49 48 47 47 46 45 44 43 42 41 41 40 40 40 41 41 41 41 41 40 40 40 40 40 41 41 41 42 42 42 42 43 43 43 43 43 43 42 42 42 43 43 42 41 39 38 36 34 34 33 33 33 33 32 32 32 32 32 32 33 33 33 34 34 34 35 36 36 37 38 38 39 40
67 65 64 63 61 59 58 56 55 53 52 50 49 47 46 45 44 43 42 41 40 40 39 39 39 39 39 40 40 41 41 41 41 40 40 40 40 40 40 40 41 41 41 41 42 42 43 43 43 43 43 43 42 42 42 42 42 41 39 37 35 33 32 31 31 30 30 30 30 30 30 30 31 31 31 32 32 33 33 34 34 35 36 36 37 38
64 63 61 60 59 57 55 54 53 51 50 48 47 45 44 43 42 41 40 39 39 38 37 37 37 37 38 39 39 40 40 41 41 41 41 41 40 40 40 40 40 40 40 41 41 41 42 42 43 43 43 43 42 42 41 41 41 41 40 39 37 35 33 31 30 29 28 28 28 28 28 28 28 28 29 29 30 30 31 31 32 33 34 34 35 36
61 60 59 57 56 54 53 52 51 50 48 46 45 43 42 41 40 39 38 37 37 36 36 36 36 36 37 38 38 39 40 40 41 41 41 41 41 40 40 40 40 40 40 39 40 40 40 41 41 42 42 42 41 41 40 40 40 40 40 39 38 36 34 32 30 29 28 28 27 27 27 27 27 27 27 27 27 28 28 29 30 31 31 32 33 34
58 57 56 55 53 52 51 50 49 48 46 45 43 42 41 40 38 37 36 36 35 35 35 35 35 36 36 37 38 38 39 39 40 40 40 40 40 41 41 41 40 40 40 39 39 38 38 38 38 39 39 40 40 39 39 38 38 37 37 37 36 35 34 33 32 31 30 29 29 28 27 27 27 26 26 26 26 26 26 27 27 28 29 30 31 31
56 54 53 52 51 50 49 48 47 46 45 43 42 41 39 38 37 36 35 34 33 33 33 34 34 35 36 36 37 37 38 38 38 39 39 39 40 40 41 41 41 41 41 40 39 38 37 37 36 36 36 36 37 37 37 36 35 34 33 33 33 32 32 32 32 31 31 30 30 29 29 28 27 26 25 25 24 24 24 25 25 26 27 28 28 29
53 52 51 49 48 48 47 47 46 45 44 42 41 39 38 36 35 34 33 32 32 32 32 33 34 34 35 36 36 37 37 37 38 38 38 39 39 40 40 41 41 42 42 42 41 40 39 38 36 35 34 34 34 34 34 34 33 32 31 30 29 29 29 29 30 30 30 30 30 30 29 28 27 26 25 24 24 24 23 23 23 24 25 25 26 27
Wind_Direction
284 284 284 283 283 283 283 283 282 282 282 282 282 282 281 281 281 281 281 281 281 280 280 280 280 280 280 280 279 279 278 278 277 277 276 275 275 274 274 273 273 272 272 271 271 271 270 270 270 269 269 268 268 267 267 266 266 265 264 264 263 263 262 262 261 261 260 259 258 257 255 254 253 252 251 251 250 250 250 249 249 249 249 248 248 248
284 284 284 284 284 284 284 283 283 283 283 283 282 282 282 282 282 282 282 282 282 281 281 281 281 281 281 280 280 280 279 278 278 277 277 276 276 275 274 274 274 273 273 272 272 272 271 271 270 270 269 269 268 268 267 266 266 265 264 264 263 263 262 262 261 261 260 260 259 258 257 256 255 254 252 251 251 250 249 249 249 249 248 248 248 247
285 285 285 285 285 285 284 284 284 284 284 284 284 284 283 283 283 283 283 283 283 283 282 282 282 282 282 281 281 280 280 279 279 278 278 277 277 276 276 275 275 274 274 274 273 273 272 272 271 271 270 269 269 268 267 267 266 265 264 264 263 262 262 261 261 260 260 259 259 258 258 257 256 255 254 253 252 251 250 249 249 248 248 248 247 247
286 286 286 286 286 286 286 286 285 285 285 285 285 285 285 285 284 284 284 284 284 284 284 283 283 283 282 282 281 281 280 280 280 279 279 278 278 277 277 276 276 276 275 275 274 274 273 272 272 271 270 270 269 268 268 267 266 265 265 264 263 262 262 261 261 260 259 259 259 258 258 257 256 256 255 254 253 252 251 250 249 248 248 247 247 247
287 287 287 287 287 287 287 287 287 287 287 287 287 286 286 286 286 286 285 285 285 284 284 284 284 283 283 282 282 281 281 281 280 280 279 279 278 278 278 277 277 276 276 276 275 274 274 273 272 271 271 270 269 268 268 267 266 265 265 264 263 263 262 261 260 260 259 259 258 258 257 257 256 256 255 254 254 253 252 251 250 249 248 247 247 246
288 288 288 288 288 288 288 288 288 288 288 288 288 287 287 287 287 286 286 286 285 285 285 284 284 283 283 283 282 282 281 281 281 280 280 279 279 279 278 278 278 277 277 276 275 275 274 273 273 272 271 270 269 268 268 267 266 265 265 264 263 263 262 261 260 260 259 258 258 257 257 257 256 256 255 255 254 253 252 251 250 249 248 248 247 246
289 289 289 289 289 289 289 289 289 289 289 289 288 288 288 287 287 287 286 286 286 286 285 285 284 284 284 283 283 283 282 282 281 281 281 280 280 280 279 279 278 278 277 276 276 275 274 273 273 272 271 270 269 269 268 267 266 265 264 264 263 262 262 261 260 260 259 258 258 257 257 256 256 255 255 254 254 253 253 252 251 250 249 248 247 246
290 290 290 290 290 290 290 290 290 290 290 290 289 289 288 288 287 287 287 287 287 286 286 286 285 285 285 284 284 283 283 283 282 282 282 281 281 281 280 280 279 279 278 277 276 275 275 274 273 272 271 271 270 269 268 267 266 265 264 264 263 262 262 261 260 260 259 258 258 257 257 256 256 255 255 254 254 253 253 252 251 251 250 249 248 247
290 291 291 291 291 291 291 291 291 291 291 291 290 290 290 289 289 288 288 288 288 288 287 287 287 286 286 285 285 284 284 284 283 283 283 282 282 282 282 281 281 280 279 278 278 277 276 275 274 273 272 271 270 269 268 267 266 265 264 264 263 262 261 261 260 259 259 258 258 257 257 256 255 255 254 254 253 253 253 252 251 251 250 249 249 248
291 291 292 292 292 292 292 292 292 292 292 292 291 291 290 290 290 290 290 290 289 289 288 288 288 288 287 286 286 285 285 285 284 284 284 284 283 283 283 282 282 281 281 280 280 279 278 277 275 274 273 272 270 269 268 267 266 266 265 264 263 262 261 260 260 259 258 258 257 257 256 256 255 255 254 254 253 253 252 252 251 251 250 250 249 248
292 293 293 293 293 294 294 293 293 293 293 293 292 292 291 291 291 291 291 291 290 290 290 290 289 289 288 288 287 286 286 286 286 286 285 285 285 284 284 284 283 283 282 282 281 280 279 278 277 276 274 273 272 270 269 268 267 266 265 264 263 262 261 261 260 259 258 258 257 256 256 256 255 255 254 254 253 253 252 252 251 251 250 250 249 249
293 294 294 294 295 295 294 294 294 294 294 294 293 293 292 292 292 292 292 292 292 291 291 291 291 290 290 289 288 288 287 287 287 287 287 286 286 285 285 285 284 284 283 283 282 281 281 280 279 277 276 275 273 272 270 269 268 266 265 264 263 263 262 261 260 259 258 257 257 256 256 255 255 255 254 254 253 253 252 252 251 251 250 250 249 249
294 294 295 295 295 295 295 295 295 295 295 294 294 294 294 294 294 293 293 293 293 293 292 292 292 291 291 290 289 289 289 288 288 288 288 287 287 286 286 285 285 284 284 283 283 282 281 280 279 278 277 276 275 273 272 270 269 267 266 265 264 263 262 261 260 259 258 258 257 256 255 255 254 254 254 254 253 253 252 252 251 251 250 250 250 249
295 295 295 296 296 296 296 296 296 296 295 295 295 295 295 295 295 295 294 294 294 294 293 293 293 292 292 291 290 290 290 290 289 289 289 288 288 287 287 286 286 285 285 284 283 283 282 281 280 279 279 278 277 275 274 272 270 268 267 265 264 263 262 261 260 260 259 258 257 256 255 255 254 254 254 254 253 253 253 252 252 251 251 250 250 249
295 296 296 296 297 297 297 297 296 296 296 296 296 296 296 296 296 296 296 295 295 295 294 294 293 293 292 292 292 291 291 291 291 290 290 290 289 288 288 287 287 286 286 285 284 283 282 282 281 281 280 280 279 277 276 274 272 270 268 267 265 264 263 262 261 260 259 258 258 257 256 255 254 254 253 253 253 253 253 253 252 252 251 251 250 249
296 297 297 297 297 297 297 297 297 297 297 297 297 297 297 297 297 297 297 296 296 295 295 294 294 294 293 293 293 292 292 292 292 292 291 291 290 289 288 288 287 287 286 285 284 283 283 282 282 282 281 281 280 279 277 276 275 273 271 269 267 265 264 262 261 260 259 259 258 257 256 256 255 254 253 253 253 252 252 252 252 252 251 251 250 250
297 298 298 298 298 298 298 298 298 297 297 297 297 297 297 297 297 297 297 297 296 296 295 295 295 294 294 294 294 293 293 293 293 293 292 291 290 289 288 288 287 286 285 285 284 283 283 283 282 282 281 281 280 279 279 278 277 276 274 272 270 268 266 264 262 261 260 259 258 258 257 256 255 255 254 253 252 252 252 252 251 251 251 251 250 250
298 298 299 299 299 299 298 298 298 298 298 298 298 298 298 298 298 297 297 297 296 296 296 295 295 295 295 294 294 294 294 294 293 293 292 291 290 289 288 288 287 286 285 284 284 283 283 282 282 282 281 280 280 280 279 279 278 277 276 275 273 271 268 266 264 263 261 260 259 258 257 257 256 255 254 254 253 252 252 251 251 251 250 250 250 250
299 299 299 299 299 299 299 299 298 298 298 298 298 298 298 298 298 298 297 297 296 296 296 296 296 295 295 295 294 294 294 294 293 293 292 291 290 289 288 288 287 287 286 285 284 283 283 282 282 282 281 280 280 280 280 279 279 278 277 276 275 273 271 269 267 265 263 261 260 259 258 257 257 256 255 254 253 253 252 251 251 250 250 250 249 249
300 300 300 299 299 299 299 299 298 298 298 298 298 298 298 298 298 298 297 297 296 296 296 296 296 296 295 295 295 294 294 294 293 293 292 292 291 290 289 289 288 288 287 286 285 284 283 283 282 282 281 281 280 280 280 279 279 278 278 277 276 275 273 271 269 267 265 263 262 260 259 258 257 256 255 255 254 253 252 252 251 251 250 250 249 249
300 300 300 300 299 299 299 299 299 299 298 298 298 298 298 298 298 298 297 297 297 297 297 297 297 296 296 295 295 295 294 294 294 293 293 292 292 291 290 289 289 289 288 287 286 285 284 284 283 282 282 281 281 281 280 280 279 279 278 277 277 276 274 273 271 269 267 265 264 262 260 259 258 257 256 255 254 254 253 252 252 251 250 250 250 249
301 300 300 300 299 299 299 299 299 299 299 299 299 299 298 298 298 298 297 297 297 297 297 297 297 297 297 296 296 295 295 295 294 294 294 293 293 291 290 290 290 289 288 287 287 286 286 285 284 283 282 282 281 281 281 280 280 279 279 278 277 276 275 274 272 271 269 267 265 264 262 260 259 258 256 255 254 254 253 252 252 251 251 250 250 249
301 301 300 300 299 299 299 299 299 299 299 299 299 299 299 298 298 298 298 298 298 298 298 298 298 297 297 297 296 296 295 295 295 295 294 294 293 291 290 290 290 289 289 288 287 287 286 286 285 284 283 282 282 281 281 280 280 279 279 279 278 277 276 275 273 272 270 268 267 265 263 262 260 259 257 256 255 254 253 252 252 251 251 251 250 250
301 300 300 299 299 299 299 299 299 299 299 299 299 299 299 298 298 298 298 298 298 298 298 298 298 298 297 297 297 296 296 295 295 295 294 294 292 291 290 290 290 289 289 288 288 288 287 286 285 285 284 283 282 282 281 280 280 280 279 279 278 277 277 275 274 273 271 270 268 266 264 263 261 260 258 257 256 255 254 253 252 252 251 251 250 250
300 299 299 299 299 299 299 298 298 298 298 298 298 298 298 298 298 298 298 298 299 299 298 298 298 297 297 297 297 296 295 295 295 295 294 293 292 291 290 290 290 290 289 289 289 289 288 287 286 286 285 284 283 282 282 281 280 280 279 279 278 278 277 276 275 274 273 271 269 268 266 264 262 261 259 258 257 256 254 254 253 252 251 251 251 250
299 298 298 298 298 298 298 298 298 298 298 298 298 298 298 298 298 299 299 299 299 298 298 298 298 297 297 297 296 296 295 295 295 295 294 293 292 291 290 290 290 290 290 290 290 290 289 289 288 287 286 285 285 284 283 282 281 281 280 279 278 278 277 276 276 275 274 273 271 269 267 265 263 262 260 259 257 256 255 254 253 253 252 251 251 251
298 298 297 297 297 297 297 297 297 297 298 298 298 298 298 298 298 298 299 299 298 298 298 298 297 297 297 297 296 296 295 295 295 295 294 293 292 292 291 291 291 291 291 292 292 292 291 290 289 289 288 287 286 286 285 284 283 282 281 280 279 278 278 277 276 275 275 274 273 271 269 267 265 263 261 259 258 257 256 255 254 253 253 252 251 251
297 297 297 297 297 297 297 297 297 297 298 298 298 298 298 298 298 298 298 298 298 298 298 297 297 297 297 297 296 296 296 295 295 295 295 294 293 292 292 292 292 293 293 293 293 293 293 292 291 290 290 289 288 287 287 286 285 284 283 282 281 280 279 278 277 276 275 274 273 272 271 269 267 265 262 260 259 257 256 256 255 254 253 253 252 251
297 296 296 297 297 297 297 297 297 298 298 298 298 298 298 298 299 299 298 298 298 298 298 297 297 297 297 297 297 296 296 295 295 295 295 294 294 293 293 294 294 294 294 294 295 295 294 293 293 292 291 291 290 289 288 287 287 286 285 284 282 281 280 279 278 277 276 275 274 273 272 270 269 266 264 262 260 258 257 256 255 254 254 253 252 252
296 296 296 296 297 297 297 297 298 298 298 298 298 298 298 299 299 298 298 298 298 298 298 297 297 297 297 297 297 296 296 295 295 295 295 295 294 294 294 295 295 295 295 295 296 296 295 295 294 294 293 292 292 291 290 289 288 287 286 285 284 283 281 280 279 278 277 276 275 274 273 271 270 268 266 264 261 259 258 256 255 254 254 253 253 252
296 296 296 296 297 297 297 297 298 298 298 298 298 299 299 299 299 299 298 298 298 298 298 298 298 298 298 297 297 296 296 295 295 296 296 296 296 296 296 296 296 297 297 297 297 297 296 296 296 296 295 294 293 292 291 291 290 289 288 287 285 284 283 281 280 279 278 276 275 274 273 272 270 269 267 265 263 261 259 257 256 255 254 253 253 252
295 296 296 296 296 297 297 298 298 298 298 298 299 299 299 299 299 298 298 298 298 298 298 298 298 298 298 297 297 296 296 296 296 297 297 297 297 297 298 298 298 298 299 299 298 298 298 297 297 297 297 296 295 294 293 293 291 290 289 288 287 285 284 283 282 280 279 277 276 274 273 272 271 269 268 267 265 263 261 259 257 255 254 253 253 252
295 295 296 296 296 297 297 298 298 298 298 299 299 299 299 299 299 298 298 298 298 298 298 298 298 298 298 297 297 296 296 296 297 298 298 299 299 299 300 300 300 300 300 300 299 299 298 298 297 297 298 298 297 297 296 295 294 292 291 289 288 286 285 284 283 281 280 278 277 275 274 272 271 270 268 267 266 264 262 260 258 257 255 254 253 252
295 295 295 296 296 297 297 298 298 298 298 299 299 299 299 299 299 298 298 298 299 299 299 298 298 298 298 297 297 297 297 297 298 299 300 300 301 301 301 302 302 302 302 302 301 301 300 299 298 298 299 299 299 299 298 297 296 294 293 291 290 288 286 285 284 282 281 279 278 276 275 273 272 270 269 267 266 265 263 262 260 258 256 255 253 252
295 295 295 296 296 297 297 298 298 298 298 299 299 299 299 298 298 298 298 299 299 299 299 298 298 298 298 298 298 298 298 299 300 300 301 302 302 303 303 303 303 304 304 303 303 303 302 301 301 301 301 301 301 301 300 299 298 297 295 293 292 290 288 286 285 283 282 280 279 277 276 274 273 271 270 268 267 265 264 263 261 260 258 256 255 254
295 295 295 296 296 297 297 298 298 298 298 298 298 298 298 298 298 298 298 298 299 299 299 298 298 298 298 298 298 299 299 300 301 302 302 303 304 304 305 305 305 305 305 305 304 304 304 304 304 304 304 304 304 303 303 301 300 299 297 295 293 291 290 288 286 284 283 281 280 278 277 275 274 273 271 269 268 266 265 264 262 261 260 258 256 255
295 295 296 296 297 297 298 298 298 298 298 298 298 298 298 297 298 298 298 298 298 298 298 298 298 298 299 299 299 300 300 301 302 302 303 304 305 306 306 306 306 306 306 306 306 305 305 306 306 306 307 307 306 306 305 304 302 301 300 298 296 294 292 290 288 286 284 282 280 279 277 276 275 273 272 271 269 268 266 265 263 262 261 259 258 256
295 295 296 296 297 297 297 298 298 298 298 298 297 297 297 297 297 297 298 297 298 298 297 298 298 298 299 300 300 301 301 302 303 304 305 306 307 307 308 308 307 307 307 307 307 307 306 307 307 307 307 307 307 307 307 305 304 303 302 300 298 297 295 293 290 288 286 284 282 280 278 277 276 274 273 272 271 269 268 266 265 263 262 260 259 258
295 296 296 296 297 297 297 297 297 297 297 297 297 297 296 296 297 297 297 297 297 297 297 297 298 299 299 300 301 302 303 303 304 305 306 307 308 309 309 309 309 308 308 308 308 307 307 307 307 308 308 308 307 307 306 305 304 303 302 301 300 298 297 295 293 291 288 286 283 281 280 278 277 275 274 273 272 271 269 268 266 265 263 262 260 259
295 296 296 296 297 297 297 297 297 297 296 296 296 296 296 296 296 296 296 296 297 297 297 298 298 299 300 301 302 303 304 305 306 307 308 309 309 310 310 310 310 310 310 309 309 309 309 308 308 308 308 308 307 307 306 305 304 303 302 302 301 300 299 297 296 294 291 289 287 284 282 280 278 277 275 274 273 272 270 269 268 266 265 263 261 260
296 296 296 296 296 296 296 296 296 296 295 295 295 295 295 295 295 295 296 296 296 297 297 297 298 299 301 302 303 304 305 306 307 308 309 310 310 311 311 311 311 311 311 311 311 311 311 311 310 310 310 310 310 309 308 307 306 305 304 303 302 301 300 299 298 296 294 292 290 287 285 283 280 278 277 275 274 273 271 270 269 267 266 264 263 261
296 296 296 296 296 296 295 295 295 295 295 294 294 294 294 294 294 295 295 295 296 296 297 298 299 300 302 303 304 305 306 308 309 310 310 311 311 312 312 312 312 312 312 313 313 313 313 314 314 314 315 315 314 314 313 311 310 309 307 306 304 302 301 299 298 297 295 294 292 290 288 286 284 281 279 277 275 274 273 271 270 268 267 265 264 262
295 295 295 295 295 295 295 294 294 294 293 293 293 293 294 294 294 294 294 295 295 296 297 298 300 302 303 305 306 307 308 309 310 310 311 312 312 312 313 313 314 314 314 314 315 315 316 317 317 318 318 318 318 318 316 315 314 312 310 308 306 305 303 301 299 297 296 294 293 291 290 288 287 285 283 281 278 277 275 273 271 270 268 266 265 263
295 294 294 294 294 294 294 293 293 293 292 292 293 292 293 293 293 293 294 294 295 296 297 299 301 303 305 306 307 309 309 310 310 311 311 312 313 314 314 315 315 315 316 316 317 318 319 319 320 320 319 320 320 319 318 317 315 314 312 310 309 307 305 303 301 299 297 295 294 292 291 290 288 287 285 283 282 280 278 276 274 272 270 268 266 265
294 294 294 293 293 293 293 292 292 292 291 291 292 292 292 292 293 293 293 294 295 296 298 300 303 305 306 308 309 310 310 311 311 311 312 313 314 315 316 316 317 317 318 318 319 320 321 321 321 321 320 320 320 320 319 318 317 315 314 313 311 309 307 305 303 302 299 297 296 294 292 291 289 288 286 285 283 282 280 278 276 274 272 270 268 267
293 293 293 292 292 292 292 291 291 290 290 291 291 291 291 292 292 292 293 293 295 297 299 301 303 305 307 309 310 311 312 312 312 312 313 314 315 316 317 318 318 319 319 320 320 320 321 321 321 321 320 320 320 319 319 318 318 318 317 316 315 313 310 308 306 305 303 301 299 297 296 294 291 289 288 286 285 283 281 280 278 276 274 272 271 269
292 292 292 291 291 291 290 290 290 289 290 290 290 290 290 291 291 292 292 293 295 297 300 302 304 306 308 309 311 311 312 312 313 313 314 315 316 317 318 319 320 320 321 321 321 321 320 320 320 319 319 319 319 319 319 319 320 320 319 319 318 317 315 313 311 310 309 307 306 304 301 298 295 292 289 288 286 285 283 281 280 278 276 274 272 271
291 291 290 290 290 289 289 289 288 288 288 288 289 289 290 290 290 291 292 293 296 298 300 303 305 307 308 310 311 311 312 313 314 314 316 317 318 319 319 320 320 321 321 321 321 320 319 319 318 318 317 317 317 317 318 319 319 320 320 319 319 319 319 318 318 317 316 315 313 311 309 306 302 298 294 291 288 286 284 283 281 279 277 276 274 272
290 289 289 288 288 288 287 287 287 287 287 287 288 288 289 289 289 290 292 294 296 299 301 303 305 307 309 310 310 311 312 313 314 315 317 318 319 320 320 321 321 321 321 321 320 319 319 318 317 316 316 316 316 316 317 317 317 318 318 318 319 320 321 322 323 323 322 322 320 318 316 313 309 305 301 297 293 290 287 284 282 281 279 277 276 274
288 287 287 287 286 286 285 285 285 286 286 286 286 287 287 288 289 290 292 294 297 299 302 304 306 308 309 310 310 311 312 314 315 316 318 319 320 320 321 321 321 321 321 321 320 320 319 318 317 316 316 315 315 315 315 315 315 315 315 316 318 320 322 324 325 326 327 326 325 323 321 318 315 311 308 304 300 295 292 288 285 283 281 279 277 275
286 286 285 285 284 284 284 284 284 284 284 285 286 286 286 287 287 289 291 294 297 300 302 304 306 308 309 310 311 312 313 314 316 317 319 320 321 321 321 321 321 321 321 321 321 320 320 319 318 317 316 316 316 315 315 314 314 313 313 315 318 321 323 326 328 328 329 328 327 325 323 321 319 317 314 311 307 303 299 295 291 288 285 282 280 278
Height
10446 10444 10442 10439 10436 10433 10430 10427 10424 10422 10418 10415 10413 10410 10407 10403 10400 10397 10395 10392 10388 10385 10382 10380 10377 10374 10372 10368 10364 10360 10356 10353 10349 10346 10343 10341 10338 10336 10333 10332 10330 10329 10328 10328 10328 10328 10328 10329 10330 10330 10331 10332 10332 10333 10333 10333 10333 10334 10334 10335 10335 10335 10336 10337 10338 10339 10340 10342 10343 10346 10348 10351 10353 10356 10358 10361 10363 10366 10369 10372 10375 10378 10381 10385 10388 10392
10437 10434 10432 10430 10427 10424 10420 10417 10415 10413 10409 10405 10403 10400 10398 10395 10391 10387 10385 10382 10378 10375 10372 10369 10367 10363 10360 10357 10353 10348 10344 10340 10337 10333 10331 10328 10325 10323 10321 10320 10318 10317 10317 10317 10316 10316 10316 10316 10316 10317 10317 10317 10317 10318 10318 10318 10318 10318 10319 10319 10320 10320 10321 10322 10322 10323 10325 10326 10327 10328 10331 10333 10337 10339 10342 10345 10348 10351 10354 10357 10360 10363 10367 10370 10373 10377
10428 10425 10422 10420 10417 10415 10410 10407 10405 10403 10400 10397 10393 10390 10388 10385 10382 10378 10374 10372 10368 10365 10362 10359 10356 10352 10348 10345 10340 10337 10332 10328 10325 10321 10318 10315 10313 10310 10308 10307 10306 10305 10305 10304 10303 10303 10303 10303 10303 10303 10303 10303 10303 10303 10303 10303 10303 10303 10303 10303 10304 10305 10306 10307 10307 10308 10309 10310 10312 10313 10315 10317 10320 10322 10325 10328 10332 10335 10338 10342 10345 10348 10352 10355 10358 10362
10419 10415 10412 10410 10408 10405 10401 10397 10394 10392 10389 10387 10383 10380 10378 10375 10371 10368 10364 10362 10358 10355 10351 10348 10345 10341 10337 10332 10328 10325 10320 10317 10313 10309 10306 10303 10300 10298 10296 10295 10294 10293 10293 10292 10291 10290 10289 10289 10288 10288 10288 10288 10288 10287 10287 10287 10287 10287 10288 10288 10289 10290 10290 10291 10292 10293 10294 10295 10297 10298 10299 10301 10303 10306 10308 10312 10315 10318 10322 10326 10330 10333 10337 10340 10343 10346
10409 10405 10402 10399 10397 10394 10390 10388 10385 10381 10378 10375 10373 10370 10367 10364 10360 10357 10354 10351 10348 10345 10341 10337 10333 10330 10325 10320 10317 10313 10309 10305 10302 10297 10294 10290 10288 10285 10284 10283 10282 10282 10280 10279 10278 10276 10275 10275 10274 10274 10273 10273 10273 10273 10273 10273 10273 10273 10273 10273 10273 10275 10275 10276 10277 10278 10280 10281 10282 10283 10284 10286 10288 10290 10292 10295 10298 10302 10306 10309 10313 10317 10320 10324 10327 10330
10399 10396 10392 10389 10387 10383 10380 10377 10374 10370 10367 10365 10362 10360 10357 10353 10350 10347 10343 10340 10338 10334 10330 10327 10322 10318 10314 10310 10305 10302 10298 10294 10290 10286 10282 10279 10276 10274 10273 10272 10271 10270 10268 10266 10264 10263 10261 10260 10260 10259 10259 10259 10259 10259 10259 10258 10258 10258 10258 10259 10259 10260 10261 10262 10263 10263 10265 10266 10267 10268 10270 10271 10273 10275 10277 10280 10282 10286 10289 10293 10297 10300 10304 10308 10312 10315
10388 10385 10383 10379 10376 10373 10371 10368 10363 10360 10357 10354 10352 10350 10347 10343 10340 10337 10333 10330 10327 10323 10319 10315 10311 10307 10303 10298 10294 10290 10287 10283 10279 10275 10271 10268 10265 10263 10262 10260 10258 10257 10255 10253 10251 10249 10248 10247 10246 10245 10245 10245 10245 10245 10245 10245 10245 10245 10245 10245 10245 10246 10247 10247 10248 10250 10250 10252 10253 10254 10255 10257 10258 10260 10262 10264 10267 10270 10273 10277 10280 10283 10287 10291 10295 10299
10377 10375 10372 10370 10367 10363 10360 10357 10353 10350 10347 10343 10341 10338 10336 10333 10329 10327 10323 10320 10316 10312 10307 10303 10300 10296 10292 10288 10283 10278 10275 10272 10268 10265 10261 10258 10255 10253 10250 10248 10246 10243 10241 10238 10237 10235 10235 10233 10233 10232 10232 10232 10232 10232 10232 10232 10232 10232 10232 10232 10233 10233 10233 10234 10235 10236 10237 10238 10239 10240 10242 10243 10244 10245 10247 10250 10252 10255 10257 10260 10264 10268 10271 10275 10278 10283
10367 10364 10361 10359 10357 10353 10350 10345 10342 10338 10336 10333 10330 10327 10323 10320 10317 10315 10313 10310 10305 10300 10295 10292 10288 10285 10281 10277 10272 10267 10263 10260 10257 10254 10251 10247 10245 10242 10239 10237 10233 10230 10227 10225 10223 10222 10221 10220 10220 10219 10218 10218 10218 10218 10218 10218 10218 10218 10219 10220 10220 10220 10221 10222 10222 10223 10223 10224 10225 10227 10227 10228 10230 10232 10233 10235 10237 10240 10242 10245 10248 10252 10255 10258 10262 10267
10356 10353 10351 10348 10346 10343 10340 10335 10330 10327 10324 10322 10318 10315 10312 10309 10307 10303 10301 10298 10294 10289 10284 10280 10277 10273 10269 10265 10261 10257 10253 10250 10247 10245 10241 10237 10234 10232 10228 10225 10222 10218 10215 10213 10210 10208 10207 10206 10205 10205 10205 10205 10205 10205 10205 10205 10206 10206 10207 10207 10207 10208 10208 10208 10209 10210 10210 10211 10212 10213 10213 10215 10216 10217 10219 10221 10223 10225 10227 10230 10233 10236 10239 10242 10247 10250
10344 10342 10340 10338 10335 10332 10328 10324 10320 10316 10313 10310 10307 10303 10300 10298 10296 10293 10290 10285 10282 10278 10274 10270 10265 10262 10257 10253 10250 10246 10243 10240 10237 10235 10232 10227 10223 10220 10217 10215 10211 10208 10205 10202 10199 10197 10195 10193 10192 10190 10190 10190 10191 10192 10192 10193 10193 10194 10194 10195 10195 10195 10195 10196 10197 10197 10197 10198 10199 10200 10200 10202 10202 10203 10205 10207 10208 10210 10213 10215 10218 10220 10223 10227 10231 10235
10334 10332 10330 10327 10323 10320 10316 10312 10308 10306 10303 10300 10295 10292 10288 10286 10284 10282 10278 10274 10270 10267 10263 10258 10255 10250 10246 10242 10238 10235 10233 10231 10228 10225 10222 10217 10213 10210 10207 10203 10201 10197 10194 10191 10188 10186 10183 10180 10178 10177 10176 10176 10177 10178 10179 10180 10181 10181 10182 10182 10182 10183 10183 10183 10184 10184 10185 10185 10186 10187 10188 10188 10189 10190 10192 10193 10194 10197 10198 10201 10203 10206 10209 10213 10217 10220
10324 10322 10320 10317 10313 10309 10305 10302 10298 10295 10292 10288 10285 10281 10278 10275 10272 10270 10266 10263 10260 10257 10253 10248 10244 10240 10235 10230 10227 10224 10223 10221 10219 10216 10212 10207 10203 10199 10196 10193 10191 10187 10184 10181 10178 10175 10172 10169 10167 10165 10163 10163 10164 10165 10167 10167 10168 10168 10169 10170 10170 10171 10171 10172 10172 10172 10172 10173 10173 10174 10175 10176 10177 10178 10179 10180 10182 10183 10185 10188 10190 10193 10196 10199 10203 10207
10315 10312 10310 10307 10303 10298 10295 10291 10288 10284 10280 10277 10274 10271 10268 10264 10261 10258 10254 10251 10248 10245 10242 10238 10234 10230 10225 10220 10216 10213 10212 10211 10210 10207 10203 10198 10192 10188 10185 10183 10181 10178 10174 10170 10167 10164 10161 10158 10155 10154 10153 10153 10153 10153 10153 10154 10155 10157 10157 10158 10158 10159 10160 10160 10160 10160 10160 10161 10162 10162 10163 10164 10165 10166 10167 10168 10170 10172 10173 10175 10178 10180 10183 10186 10189 10193
10306 10303 10300 10296 10292 10288 10284 10280 10277 10273 10269 10266 10263 10261 10257 10254 10250 10247 10244 10240 10237 10234 10231 10227 10224 10220 10216 10210 10205 10202 10201 10201 10200 10198 10194 10188 10182 10177 10173 10173 10172 10169 10165 10161 10157 10153 10150 10147 10146 10145 10144 10143 10142 10140 10140 10142 10143 10144 10145 10146 10147 10148 10148 10148 10148 10149 10149 10149 10150 10150 10151 10152 10153 10155 10156 10158 10159 10160 10162 10163 10165 10168 10170 10173 10176 10179
10297 10293 10290 10285 10282 10277 10273 10270 10267 10263 10258 10256 10253 10250 10247 10243 10240 10236 10233 10230 10227 10223 10220 10217 10213 10210 10207 10202 10196 10191 10189 10190 10190 10189 10185 10179 10173 10167 10163 10162 10162 10160 10157 10152 10147 10143 10140 10139 10138 10137 10135 10133 10132 10130 10129 10130 10131 10132 10133 10135 10135 10137 10137 10137 10138 10138 10138 10138 10138 10139 10140 10140 10142 10143 10145 10146 10147 10148 10150 10152 10153 10155 10158 10160 10163 10166
10287 10283 10280 10275 10271 10267 10263 10260 10256 10252 10248 10246 10243 10240 10238 10234 10230 10227 10223 10220 10217 10213 10210 10208 10205 10201 10197 10193 10188 10182 10179 10179 10180 10180 10177 10170 10164 10158 10153 10153 10153 10153 10149 10144 10139 10135 10133 10132 10130 10128 10127 10124 10122 10120 10120 10120 10121 10122 10122 10123 10124 10125 10125 10126 10127 10127 10127 10128 10128 10128 10128 10130 10130 10132 10133 10135 10136 10137 10138 10140 10141 10143 10145 10147 10150 10152
10277 10273 10269 10265 10261 10257 10254 10250 10246 10242 10238 10236 10233 10231 10228 10225 10222 10218 10215 10211 10207 10204 10201 10198 10196 10193 10188 10185 10180 10175 10172 10170 10171 10170 10168 10163 10156 10149 10145 10144 10145 10145 10142 10137 10132 10128 10126 10124 10122 10120 10118 10116 10114 10113 10112 10112 10112 10112 10112 10112 10113 10113 10114 10115 10116 10117 10117 10117 10118 10118 10118 10119 10120 10121 10122 10123 10125 10125 10127 10127 10128 10130 10132 10134 10137 10138
10267 10263 10259 10255 10250 10247 10244 10241 10237 10233 10229 10226 10224 10222 10219 10216 10212 10209 10205 10202 10198 10195 10192 10190 10187 10183 10180 10176 10172 10167 10164 10163 10162 10162 10160 10155 10149 10142 10137 10135 10136 10135 10133 10129 10125 10122 10119 10117 10115 10113 10110 10108 10107 10105 10104 10104 10103 10103 10102 10102 10102 10103 10103 10104 10105 10106 10107 10107 10107 10108 10108 10109 10110 10111 10112 10113 10113 10115 10115 10116 10117 10118 10120 10122 10123 10126
10257 10253 10249 10245 10241 10238 10234 10231 10228 10224 10220 10217 10215 10213 10211 10208 10204 10200 10197 10192 10189 10187 10184 10182 10178 10175 10171 10167 10163 10160 10157 10155 10154 10153 10152 10148 10142 10135 10129 10127 10127 10127 10125 10121 10117 10114 10112 10110 10108 10105 10103 10101 10099 10098 10097 10096 10095 10094 10093 10093 10093 10093 10093 10094 10095 10095 10096 10097 10097 10098 10098 10099 10100 10101 10102 10102 10103 10104 10105 10105 10107 10107 10108 10110 10112 10114
10247 10243 10238 10235 10232 10228 10224 10221 10218 10215 10210 10208 10205 10204 10202 10200 10196 10192 10188 10184 10181 10178 10176 10173 10170 10166 10162 10159 10155 10152 10149 10147 10146 10145 10144 10141 10135 10128 10122 10120 10120 10119 10117 10113 10109 10107 10105 10103 10101 10098 10096 10094 10092 10091 10090 10088 10087 10086 10085 10085 10085 10085 10085 10085 10085 10086 10086 10087 10088 10088 10089 10089 10090 10090 10092 10092 10093 10093 10094 10095 10095 10097 10098 10099 10101 10103
10237 10232 10228 10224 10222 10218 10215 10212 10208 10205 10201 10198 10197 10195 10193 10190 10187 10183 10180 10176 10173 10170 10168 10165 10161 10157 10154 10151 10147 10144 10141 10139 10138 10138 10137 10134 10128 10122 10116 10113 10113 10112 10109 10105 10102 10100 10098 10096 10093 10091 10089 10087 10086 10085 10083 10082 10080 10079 10078 10077 10077 10076 10076 10076 10076 10077 10077 10077 10078 10078 10079 10080 10080 10081 10082 10083 10083 10084 10085 10085 10085 10086 10087 10088 10090 10092
10226 10222 10218 10214 10211 10208 10205 10202 10199 10195 10192 10190 10188 10185 10184 10182 10178 10175 10172 10168 10165 10163 10160 10157 10153 10150 10146 10143 10140 10137 10133 10131 10130 10130 10130 10127 10122 10116 10110 10108 10107 10105 10103 10099 10096 10093 10092 10089 10086 10083 10082 10081 10080 10078 10077 10075 10073 10072 10071 10070 10069 10068 10068 10067 10067 10067 10068 10068 10069 10070 10070 10071 10071 10072 10072 10073 10073 10074 10075 10075 10075 10076 10077 10078 10080 10082
10215 10212 10208 10205 10202 10199 10197 10193 10190 10187 10184 10182 10180 10178 10176 10173 10170 10167 10163 10161 10158 10155 10153 10150 10147 10142 10138 10135 10133 10129 10126 10124 10123 10123 10123 10121 10116 10110 10105 10103 10101 10099 10097 10093 10090 10087 10085 10082 10079 10077 10075 10074 10073 10072 10070 10068 10067 10065 10064 10063 10062 10061 10060 10059 10058 10058 10059 10060 10060 10061 10062 10062 10062 10063 10063 10063 10064 10065 10065 10066 10067 10067 10068 10068 10070 10072
10207 10203 10200 10197 10195 10192 10190 10187 10183 10180 10177 10174 10172 10170 10168 10165 10162 10159 10155 10153 10150 10148 10145 10142 10140 10136 10132 10130 10127 10123 10120 10118 10117 10117 10116 10114 10110 10105 10100 10097 10096 10094 10091 10087 10084 10082 10079 10076 10073 10070 10068 10067 10066 10065 10063 10062 10060 10059 10058 10057 10055 10054 10053 10052 10051 10050 10050 10051 10052 10052 10053 10053 10053 10054 10054 10055 10055 10055 10056 10057 10058 10058 10059 10060 10062 10063
10200 10197 10193 10190 10187 10185 10183 10180 10177 10173 10170 10168 10165 10163 10161 10158 10155 10152 10148 10145 10143 10141 10138 10136 10133 10130 10127 10124 10120 10117 10114 10112 10111 10110 10109 10107 10104 10100 10095 10092 10090 10088 10086 10082 10078 10075 10073 10070 10067 10064 10062 10060 10059 10058 10057 10055 10054 10053 10052 10050 10048 10047 10046 10045 10044 10043 10043 10043 10043 10043 10044 10045 10045 10045 10046 10046 10047 10047 10047 10048 10049 10050 10051 10052 10054 10055
10191 10187 10184 10182 10179 10177 10175 10172 10169 10167 10163 10162 10159 10157 10154 10152 10149 10146 10142 10139 10137 10134 10132 10130 10127 10124 10122 10118 10115 10112 10108 10107 10105 10104 10103 10101 10098 10094 10090 10087 10085 10083 10080 10077 10074 10070 10067 10063 10061 10058 10057 10054 10053 10052 10050 10048 10047 10046 10045 10043 10042 10041 10040 10038 10038 10037 10037 10036 10035 10035 10036 10037 10037 10037 10038 10038 10038 10038 10039 10040 10040 10042 10043 10045 10046 10048
10182 10179 10176 10173 10172 10170 10167 10165 10162 10159 10157 10153 10151 10148 10147 10145 10142 10139 10136 10133 10130 10128 10126 10123 10121 10118 10116 10113 10110 10106 10103 10101 10100 10098 10097 10095 10092 10088 10084 10082 10080 10078 10076 10073 10069 10065 10062 10058 10055 10053 10051 10048 10047 10045 10043 10042 10041 10040 10038 10037 10036 10034 10033 10032 10031 10030 10030 10029 10028 10028 10028 10028 10028 10029 10030 10030 10030 10031 10031 10032 10032 10033 10035 10037 10038 10040
10175 10171 10168 10166 10164 10162 10160 10157 10155 10152 10149 10146 10143 10141 10139 10137 10135 10133 10130 10127 10125 10122 10120 10117 10115 10113 10110 10108 10104 10101 10097 10095 10094 10093 10092 10090 10086 10082 10080 10077 10075 10072 10071 10068 10065 10062 10057 10053 10050 10048 10046 10043 10042 10040 10038 10037 10035 10033 10032 10031 10029 10028 10027 10025 10025 10025 10024 10023 10022 10021 10021 10020 10021 10021 10022 10022 10023 10023 10023 10024 10025 10025 10027 10028 10030 10032
10167 10163 10160 10158 10156 10154 10152 10150 10147 10145 10142 10139 10136 10133 10132 10130 10128 10125 10123 10120 10118 10116 10113 10112 10109 10107 10105 10102 10099 10096 10092 10090 10088 10088 10087 10084 10080 10077 10075 10072 10070 10067 10066 10064 10062 10058 10053 10048 10045 10042 10040 10038 10037 10034 10032 10031 10029 10028 10027 10025 10023 10022 10020 10020 10019 10018 10018 10017 10016 10015 10014 10013 10013 10013 10014 10014 10015 10015 10016 10016 10017 10018 10019 10021 10022 10023
10159 10156 10153 10150 10148 10147 10145 10142 10140 10137 10135 10132 10129 10127 10124 10122 10120 10118 10116 10114 10112 10110 10108 10106 10103 10101 10099 10097 10094 10091 10087 10085 10083 10082 10081 10079 10075 10072 10070 10067 10065 10062 10060 10060 10058 10054 10049 10045 10042 10038 10035 10033 10031 10029 10027 10025 10024 10022 10021 10019 10018 10016 10015 10013 10013 10013 10012 10011 10010 10008 10008 10007 10007 10007 10007 10007 10007 10008 10008 10008 10010 10011 10012 10013 10014 10015
10153 10150 10147 10144 10142 10140 10138 10135 10133 10130 10127 10125 10122 10120 10117 10115 10113 10111 10109 10107 10105 10103 10102 10100 10098 10096 10093 10092 10089 10086 10083 10080 10078 10077 10076 10074 10070 10067 10065 10063 10060 10057 10055 10054 10053 10051 10046 10042 10038 10035 10031 10028 10025 10023 10022 10020 10019 10017 10015 10014 10012 10010 10009 10008 10007 10007 10006 10005 10003 10003 10002 10001 10000 10000 10000 10000 10000 10000 10000 10002 10002 10003 10005 10006 10007 10008
10147 10144 10141 10138 10136 10133 10132 10129 10127 10123 10121 10118 10115 10113 10111 10108 10107 10104 10102 10100 10098 10097 10096 10094 10092 10090 10088 10086 10083 10081 10078 10075 10073 10072 10071 10069 10066 10063 10060 10058 10056 10053 10051 10048 10047 10045 10043 10039 10035 10032 10028 10024 10021 10018 10017 10015 10014 10012 10010 10009 10007 10006 10004 10003 10002 10002 10000 9999 9998 9997 9995 9995 9994 9994 9993 9993 9993 9993 9993 9994 9995 9996 9998 9998 10000 10000
10141 10137 10135 10132 10130 10128 10125 10123 10120 10117 10115 10112 10109 10107 10105 10102 10100 10098 10096 10094 10092 10091 10090 10088 10087 10085 10083 10082 10078 10076 10073 10071 10069 10067 10066 10065 10062 10059 10056 10054 10052 10049 10047 10044 10042 10040 10038 10035 10032 10028 10025 10021 10018 10015 10013 10011 10009 10007 10005 10004 10002 10001 9999 9998 9997 9996 9995 9993 9992 9991 9990 9989 9988 9988 9988 9987 9987 9987 9987 9987 9988 9989 9990 9992 9993 9994
10134 10131 10128 10127 10124 10122 10119 10117 10114 10112 10108 10106 10103 10101 10098 10097 10094 10092 10090 10088 10087 10085 10084 10082 10082 10080 10078 10077 10075 10072 10068 10066 10064 10063 10062 10060 10058 10055 10052 10050 10047 10045 10043 10040 10038 10035 10032 10030 10027 10025 10022 10018 10015 10012 10009 10007 10005 10003 10001 9999 9998 9996 9995 9993 9992 9990 9989 9988 9987 9985 9984 9983 9983 9982 9982 9982 9981 9981 9981 9982 9982 9982 9983 9985 9987 9988
10128 10125 10122 10120 10118 10116 10113 10111 10108 10105 10103 10100 10098 10095 10093 10091 10088 10087 10085 10083 10082 10080 10078 10077 10076 10075 10074 10073 10071 10068 10065 10062 10060 10058 10057 10055 10053 10052 10048 10045 10043 10041 10039 10037 10034 10032 10029 10026 10023 10020 10018 10015 10012 10008 10006 10003 10001 9998 9997 9995 9993 9992 9990 9989 9987 9986 9985 9983 9982 9980 9979 9978 9978 9977 9977 9976 9976 9976 9976 9976 9976 9977 9977 9978 9980 9981
10122 10119 10117 10115 10112 10110 10108 10105 10102 10100 10097 10095 10092 10090 10088 10086 10083 10082 10080 10078 10077 10075 10073 10072 10071 10070 10069 10068 10067 10064 10062 10058 10056 10054 10052 10051 10049 10047 10044 10041 10038 10037 10035 10033 10030 10028 10025 10023 10020 10017 10014 10012 10008 10005 10003 10000 9997 9995 9992 9990 9988 9987 9986 9985 9983 9982 9980 9978 9977 9975 9975 9973 9973 9972 9971 9971 9970 9970 9970 9970 9970 9970 9971 9972 9973 9974
10115 10113 10110 10108 10107 10104 10102 10100 10097 10094 10092 10090 10087 10085 10083 10081 10079 10077 10076 10074 10073 10071 10069 10068 10067 10065 10064 10063 10062 10060 10058 10055 10053 10050 10048 10047 10045 10043 10040 10037 10035 10033 10031 10029 10027 10023 10022 10019 10016 10013 10011 10008 10005 10003 10000 9997 9995 9992 9988 9986 9984 9983 9982 9980 9978 9977 9976 9974 9973 9972 9970 9969 9968 9967 9967 9966 9965 9965 9965 9965 9965 9965 9965 9966 9967 9967
10109 10107 10105 10102 10100 10098 10097 10094 10092 10089 10087 10085 10082 10080 10078 10076 10074 10073 10072 10070 10068 10067 10065 10063 10062 10061 10060 10058 10057 10055 10053 10051 10048 10047 10044 10042 10040 10039 10037 10034 10031 10028 10026 10025 10022 10020 10018 10015 10013 10010 10007 10005 10002 9999 9997 9995 9992 9989 9986 9983 9980 9978 9977 9976 9975 9973 9972 9970 9968 9967 9966 9965 9963 9963 9962 9962 9961 9960 9960 9960 9960 9960 9960 9960 9961 9962
10103 10101 10098 10097 10095 10093 10091 10088 10087 10084 10082 10080 10078 10076 10074 10072 10070 10068 10067 10066 10065 10063 10062 10060 10058 10057 10056 10055 10053 10051 10049 10047 10045 10043 10041 10038 10037 10035 10033 10030 10028 10025 10022 10020 10018 10016 10014 10012 10009 10007 10004 10002 9998 9996 9993 9991 9989 9987 9983 9980 9977 9975 9973 9972 9970 9969 9967 9966 9965 9963 9962 9960 9960 9958 9958 9957 9957 9956 9955 9955 9955 9954 9955 9955 9955 9955
10097 10095 10093 10091 10089 10087 10085 10083 10082 10079 10077 10075 10073 10072 10070 10068 10067 10065 10063 10062 10060 10059 10057 10056 10055 10053 10052 10050 10049 10047 10045 10043 10041 10039 10037 10035 10033 10032 10029 10027 10024 10022 10019 10017 10014 10012 10010 10007 10005 10003 10000 9998 9995 9992 9990 9988 9985 9983 9981 9978 9975 9972 9970 9968 9967 9965 9963 9962 9960 9959 9958 9957 9955 9954 9953 9953 9952 9952 9951 9950 9950 9950 9949 9949 9950 9950
10092 10089 10087 10085 10083 10082 10080 10078 10077 10075 10073 10071 10070 10068 10066 10065 10063 10062 10060 10058 10057 10055 10054 10052 10051 10049 10048 10046 10045 10044 10042 10040 10038 10036 10034 10032 10030 10028 10026 10023 10021 10018 10016 10013 10010 10008 10006 10004 10002 9999 9997 9994 9992 9989 9987 9984 9982 9980 9978 9975 9972 9970 9967 9965 9963 9962 9960 9958 9957 9955 9954 9953 9952 9950 9950 9948 9948 9947 9947 9946 9945 9945 9945 9944 9944 9944
10085 10083 10082 10080 10078 10077 10075 10073 10072 10070 10069 10067 10066 10064 10063 10061 10060 10058 10057 10055 10053 10052 10050 10049 10047 10045 10044 10042 10041 10040 10038 10037 10035 10033 10031 10029 10027 10025 10023 10020 10018 10016 10013 10010 10007 10005 10002 10000 9998 9995 9993 9991 9988 9986 9983 9981 9978 9977 9975 9972 9970 9967 9964 9962 9960 9958 9957 9955 9953 9952 9950 9949 9948 9947 9945 9945 9943 9943 9942 9942 9941 9940 9940 9939 9939 9939
10080 10078 10077 10075 10073 10072 10070 10068 10067 10066 10065 10063 10062 10061 10059 10058 10057 10055 10053 10052 10050 10049 10047 10045 10043 10042 10040 10039 10037 10036 10035 10033 10032 10030 10028 10026 10024 10022 10020 10018 10015 10013 10010 10008 10005 10002 9999 9997 9995 9992 9990 9988 9986 9983 9981 9978 9975 9973 9971 9969 9967 9964 9962 9958 9957 9955 9953 9952 9950 9948 9947 9946 9944 9943 9942 9941 9940 9939 9938 9937 9937 9935 9935 9935 9934 9934
10075 10073 10071 10070 10068 10067 10065 10064 10063 10062 10061 10060 10058 10057 10056 10054 10053 10052 10050 10049 10047 10046 10044 10042 10041 10039 10037 10035 10034 10033 10031 10030 10028 10027 10025 10023 10022 10019 10017 10015 10012 10010 10008 10005 10003 10000 9997 9994 9992 9990 9987 9985 9983 9981 9978 9975 9973 9970 9967 9965 9963 9961 9958 9957 9954 9952 9950 9948 9947 9945 9943 9942 9941 9940 9938 9937 9936 9935 9934 9933 9932 9932 9931 9930 9930 9930
10070 10068 10066 10065 10063 10062 10061 10060 10058 10058 10057 10056 10055 10053 10052 10051 10050 10048 10048 10046 10045 10043 10041 10040 10038 10037 10035 10033 10031 10030 10028 10027 10025 10023 10022 10020 10018 10017 10014 10012 10010 10007 10005 10002 10000 9997 9995 9992 9990 9987 9985 9983 9981 9979 9976 9973 9970 9967 9964 9962 9960 9958 9955 9953 9952 9949 9947 9945 9943 9942 9940 9939 9938 9937 9935 9934 9933 9932 9930 9930 9928 9928 9927 9927 9926 9926
10065 10063 10062 10060 10058 10057 10056 10055 10055 10053 10053 10052 10052 10050 10049 10048 10047 10046 10045 10043 10042 10040 10038 10037 10035 10034 10032 10030 10028 10027 10025 10023 10022 10020 10018 10017 10015 10013 10011 10009 10007 10005 10003 10000 9998 9995 9993 9990 9988 9985 9983 9980 9978 9977 9974 9972 9968 9965 9962 9959 9957 9955 9952 9950 9948 9947 9945 9943 9940 9939 9937 9936 9935 9933 9932 9930 9930 9928 9927 9926 9925 9924 9923 9923 9922 9922
10060 10058 10057 10055 10054 10053 10052 10051 10050 10050 10049 10049 10048 10047 10046 10045 10044 10043 10042 10040 10038 10037 10036 10034 10033 10032 10030 10028 10027 10025 10023 10021 10019 10017 10015 10013 10012 10010 10008 10006 10004 10003 10001 9999 9997 9994 9992 9989 9986 9983 9981 9978 9977 9974 9972 9970 9967 9963 9960 9958 9955 9952 9950 9948 9946 9943 9942 9940 9938 9936 9935 9933 9932 9930 9928 9927 9926 9925 9924 9923 9922 9921 9920 9919 9918 9918
10055 10053 10052 10051 10050 10049 10048 10047 10047 10046 10046 10045 10045 10044 10043 10042 10041 10040 10038 10037 10036 10035 10033 10032 10030 10029 10027 10026 10024 10023 10021 10019 10017 10015 10013 10011 10008 10007 10005 10003 10001 10000 9998 9997 9995 9993 9991 9988 9985 9983 9980 9977 9974 9972 9970 9968 9965 9963 9960 9957 9953 9951 9948 9946 9943 9942 9939 9937 9935 9933 9932 9930 9928 9927 9926 9924 9923 9922 9920 9920 9918 9918 9917 9916 9915 9915
10050 10049 10048 10047 10046 10045 10044 10043 10043 10042 10042 10042 10042 10041 10040 10039 10038 10037 10036 10035 10033 10032 10030 10029 10028 10027 10025 10023 10022 10020 10018 10017 10015 10013 10011 10008 10007 10005 10002 10000 9998 9997 9995 9993 9992 9990 9988 9986 9984 9982 9979 9976 9973 9970 9968 9966 9963 9961 9958 9955 9952 9950 9947 9944 9942 9939 9937 9935 9933 9932 9930 9928 9926 9925 9923 9922 9920 9918 9917 9917 9915 9915 9913 9913 9912 9912
10046 10045 10044 10043 10042 10042 10041 10040 10039 10039 10038 10038 10038 10038 10037 10037 10035 10034 10033 10032 10031 10030 10028 10027 10025 10024 10023 10021 10020 10018 10017 10015 10013 10011 10008 10007 10005 10003 10001 9998 9997 9995 9992 9990 9988 9986 9984 9983 9981 9979 9977 9975 9972 9970 9967 9964 9962 9959 9956 9953 9951 9948 9945 9942 9940 9937 9935 9933 9931 9929 9927 9925 9924 9922 9921 9919 9918 9916 9915 9914 9913 9912 9911 9910 9909 9908